[ hide orbit diagram ]
For accurate long-term ephemerides, please instead use our Horizons system.This orbit viewer was implemented using two-body methods, and hence should not be used for determining accurate long-term trajectories (over several years or decades) or planetary encounter circumstances.
Orbital Elements at Epoch 2459200.5 (2020-Dec-17.0) TDB
Reference: JPL 31 (heliocentric ecliptic J2000)
Element | Value | Uncertainty (1-sigma) | Units |
e | .1735026856394222 | 1.9631e-08 | |
a | 3.106670268218334 | 1.4262e-08 | au |
q | 2.567654633286309 | 6.5309e-08 | au |
i | 3.669614459602224 | 9.4619e-07 | deg |
node | 119.0518993651165 | 1.1615e-05 | deg |
peri | 277.8203852563412 | 1.1441e-05 | deg |
M | 272.5289973258609 | 7.8799e-06 | deg |
tp | 2459686.462516804487 (2022-Apr-16.96251680) | 4.5482e-05 | TDB |
period | 2000.051453638343 5.48 | 1.3772e-05 3.771e-08 | d yr |
n | .1799953692916826 | 1.2394e-09 | deg/d |
Q | 3.64568590315036 | 1.6736e-08 | au |
|
| | Orbit Determination Parameters
Additional Information
|
[ show covariance matrix ]
Physical Parameter Table
Parameter |
Symbol |
Value |
Units |
Sigma |
Reference |
Notes |
absolute magnitude |
H |
12.91 |
|
n/a |
E2021B10 |
|
diameter |
diameter |
11.991 |
km |
0.091 |
urn:nasa:pds:neowise_diameters_albedos::2.0[mainbelt] (http://adsabs.harvard.edu/abs/2011ApJ...741...68M) |
|
geometric albedo |
albedo |
0.102 |
|
0.010 |
urn:nasa:pds:neowise_diameters_albedos::2.0[mainbelt] (http://adsabs.harvard.edu/abs/2011ApJ...741...68M) |
|
|
7359 Messier (1996 BH) Discovered 1996-Jan-16 by Klet at Klet |
Reference: DISCOVERY.DB | Last Updated: 2003-08-29 |
|
[ show close-approach data ]
Alternate Designations
1996 BH = 1978 WR14 = 1989 WT1 |
|
|